Location: Arrakis Observatory
(44.1122°N, 95.7153°W)
Time: 08:25:21
(UTC-06:00)

Amateur Radio Satellites - All Passes

Search period start: 26 January 2015 07:55
Search period end: 27 January 2015 07:55
Location: Arrakis Observatory, 44.1122°N, 95.7153°W

Satellite Date Start Highest point End Downlink Frequencies (MHz)
Time Altitude Azimuth
DANDE 26 Jan 08:03:15 08:05:51 11° 315° (NW) 08:07:53 436.750
HO-68 26 Jan 08:14:35 08:20:11 25° 91° (E) 08:25:59 435.675
Cubesat XI-IV 26 Jan 08:17:54 08:21:52 21° 298° (WNW) 08:25:41 437.490
SEEDS 26 Jan 08:23:45 08:26:12 15° 89° (E) 08:28:49 437.485
YUBILEINY 26 Jan 08:31:25 08:39:34 43° 272° (W) 08:47:37 435.215
BRITE-PL 26 Jan 08:38:50 08:44:18 45° 96° (E) 08:49:38 437.365/2234.400
CUTE-I 26 Jan 08:39:47 08:42:41 14° 302° (WNW) 08:45:22 437.470
UNISAT 6 26 Jan 08:41:03 08:43:00 13° 61° (ENE) 08:45:09 437.425
GOMX 1 26 Jan 08:51:59 08:57:09 42° 96° (E) 09:02:11 467.674
COMPASS 1 26 Jan 08:54:28 08:58:02 27° 94° (E) 09:01:38 437.405
CANX-2 26 Jan 08:58:07 09:02:14 46° 99° (E) 09:06:18 2200.000
QB50P1 26 Jan 09:04:32 09:05:52 11° 61° (ENE) 09:07:24 145.935-145.965
Oscar 11 26 Jan 09:12:44 09:15:50 19° 92° (E) 09:19:02 145.826/435.025
ANTELSAT 26 Jan 09:14:33 09:18:25 26° 67° (ENE) 09:22:20 437.575/2403.000
POLYITAN 1 26 Jan 09:15:43 09:18:11 15° 63° (ENE) 09:20:48 437.675
DOVE 4 26 Jan 09:20:18 09:25:29 55° 98° (E) 09:30:28 437.250
CUTE 1.7 + AOD 2 26 Jan 09:22:42 09:26:58 81° 101° (E) 09:31:11 437.475
AAUSAT CUBESAT 2 26 Jan 09:23:06 09:27:10 50° 99° (E) 09:31:11 437.432
TIGRISAT 26 Jan 09:24:04 09:28:10 31° 68° (ENE) 09:32:20 435.000
CUBEBUG 2 26 Jan 09:31:25 09:35:04 23° 91° (E) 09:38:42 437.445
RS-15 26 Jan 09:32:30 09:41:35 28° 346° (NNW) 09:50:46 29.354- 29.394
CINEMA 3 26 Jan 09:32:43 09:37:23 41° 96° (E) 09:41:51 145.822/145.860
BUGSAT 1 26 Jan 09:32:51 09:35:25 17° 64° (ENE) 09:38:06 437.445
POPSAT HIP 1 26 Jan 09:36:33 09:39:56 24° 67° (ENE) 09:43:26 437.405
DELFI C3 26 Jan 09:37:58 09:41:28 28° 95° (E) 09:45:00 145.870
DUCHIFAT 1 26 Jan 09:41:06 09:44:37 26° 68° (ENE) 09:48:13 145.980
UKube-1 26 Jan 09:45:53 09:49:27 25° 94° (E) 09:53:05 .
ZACube-1 26 Jan 09:53:46 09:57:34 27° 93° (E) 10:01:19 437.345
SEEDS 26 Jan 09:58:19 10:02:23 48° 287° (WNW) 10:06:25 437.485
HO-68 26 Jan 10:01:26 10:08:33 66° 291° (WNW) 10:15:36 435.675
DX 1 26 Jan 10:02:16 10:06:23 38° 98° (E) 10:10:30 434.975-435.025
FUNcube-1 26 Jan 10:06:41 10:10:49 36° 96° (E) 10:14:51 145.935
AISAT 26 Jan 10:11:18 10:14:31 19° 91° (E) 10:17:51 437.250
NANOSAT C BR1 26 Jan 10:14:07 10:18:17 58° 74° (ENE) 10:22:32 145.865
UNISAT 6 26 Jan 10:14:28 10:19:12 85° 258° (WSW) 10:23:57 437.425
BRITE-PL 26 Jan 10:17:41 10:22:36 30° 294° (WNW) 10:27:19 437.365/2234.400
UWE-3 26 Jan 10:18:05 10:22:37 58° 100° (E) 10:26:59 435.000/436.395/437.385
HUMSAT D 26 Jan 10:23:02 10:26:46 30° 95° (E) 10:30:30 437.325/437.525
QB50P2 26 Jan 10:26:22 10:30:38 80° 76° (ENE) 10:34:58 145.880/145.840
COMPASS 1 26 Jan 10:30:10 10:33:44 27° 291° (WNW) 10:37:12 437.405
50 SAT 26 Jan 10:30:14 10:33:40 26° 94° (E) 10:37:06 437.505
GOMX 1 26 Jan 10:30:22 10:35:06 30° 294° (WNW) 10:39:38 467.674
CANX-2 26 Jan 10:35:00 10:37:52 17° 295° (WNW) 10:40:36 2200.000
QB50P1 26 Jan 10:36:56 10:41:12 80° 257° (WSW) 10:45:31 145.935-145.965
VERMONT LUNAR 26 Jan 10:40:37 10:43:33 25° 160° (SSE) 10:46:31 437.305
VELOX 1 26 Jan 10:40:43 10:44:54 37° 97° (E) 10:49:05 145.980
GONETS M04 26 Jan 10:42:40 10:45:32 12° 49° (NE) 10:49:00
AIST 2 26 Jan 10:44:59 10:46:09 11° 30° (NNE) 10:47:27 435.215
Oscar 11 26 Jan 10:48:10 10:52:15 40° 289° (WNW) 10:56:15 145.826/435.025
POLYITAN 1 26 Jan 10:49:29 10:53:43 57° 260° (W) 10:58:00 437.675
ANTELSAT 26 Jan 10:50:40 10:55:04 37° 263° (W) 10:59:27 437.575/2403.000
DOVE 4 26 Jan 10:58:49 11:02:52 22° 296° (WNW) 11:06:40 437.250
SO-50 26 Jan 10:59:23 11:03:27 33° 116° (ESE) 11:07:42 436.795
CUBEBUG 1 26 Jan 10:59:37 11:03:17 25° 94° (E) 11:07:00 437.445
AAUSAT CUBESAT 2 26 Jan 10:59:52 11:02:29 16° 295° (WNW) 11:04:58 437.432
TIGRISAT 26 Jan 11:00:42 11:04:54 31° 265° (W) 11:09:04 435.000
CUTE 1.7 + AOD 2 26 Jan 11:01:05 11:02:22 11° 298° (WNW) 11:03:24 437.475
BEESAT 2 26 Jan 11:05:14 11:08:42 24° 43° (NE) 11:12:10 435.950
BUGSAT 1 26 Jan 11:06:38 11:10:35 47° 261° (W) 11:14:36 437.445
CUBEBUG 2 26 Jan 11:07:38 11:11:57 38° 290° (WNW) 11:16:06 437.445
CINEMA 3 26 Jan 11:10:20 11:14:22 25° 294° (WNW) 11:18:11 145.822/145.860
AIST 1 26 Jan 11:11:38 11:14:50 22° 89° (E) 11:18:08
POPSAT HIP 1 26 Jan 11:11:49 11:15:43 34° 264° (W) 11:19:38 437.405
DELFI C3 26 Jan 11:13:18 11:16:39 25° 292° (WNW) 11:19:55 145.870
DUCHIFAT 1 26 Jan 11:16:36 11:20:24 30° 265° (W) 11:24:12 145.980
Oscar 19 26 Jan 11:18:26 11:20:03 12° 57° (ENE) 11:21:57 437.125/150
PHONESAT 2.4 26 Jan 11:19:40 11:22:48 28° 161° (SSE) 11:25:59 2401.200-2431.200
UKube-1 26 Jan 11:21:46 11:25:42 33° 291° (WNW) 11:29:34 .
BEESAT 3 26 Jan 11:22:35 11:26:28 36° 48° (NE) 11:30:20 437.485
ZACube-1 26 Jan 11:29:59 11:33:59 31° 291° (WNW) 11:37:49 437.345
DX 1 26 Jan 11:38:59 11:42:27 22° 294° (WNW) 11:45:49 434.975-435.025
ESTCUBE 1 26 Jan 11:39:08 11:43:40 69° 103° (ESE) 11:48:11 437.505/2401.250
FUNcube-1 26 Jan 11:43:23 11:47:00 24° 294° (WNW) 11:50:28 145.935
AISAT 26 Jan 11:47:06 11:51:25 44° 289° (WNW) 11:55:42 437.250
TISAT 1 26 Jan 11:47:19 11:50:23 19° 92° (E) 11:53:35 437.305
RS-15 26 Jan 11:49:06 11:58:30 30° 20° (NNE) 12:08:21 29.354- 29.394
HO-68 26 Jan 11:51:15 11:55:06 15° 310° (NW) 11:58:38 435.675
NANOSAT C BR1 26 Jan 11:52:22 11:54:38 14° 271° (W) 11:56:43 145.865
UWE-3 26 Jan 11:55:49 11:58:43 16° 297° (WNW) 12:01:25 435.000/436.395/437.385
HUMSAT D 26 Jan 11:58:55 12:02:31 26° 292° (WNW) 12:06:00 437.325/437.525
50 SAT 26 Jan 12:05:18 12:08:47 27° 291° (WNW) 12:12:10 437.505
VELOX 1 26 Jan 12:17:41 12:21:20 24° 294° (WNW) 12:24:52 145.980
VERMONT LUNAR 26 Jan 12:17:56 12:21:19 46° 177° (S) 12:24:43 437.305
AIST 2 26 Jan 12:21:35 12:25:49 53° 51° (NE) 12:29:58 435.215
SPROUT 26 Jan 12:33:46 12:38:06 63° 100° (E) 12:42:25 437.525
CUBEBUG 1 26 Jan 12:35:43 12:39:44 33° 291° (WNW) 12:43:43 437.445
GONETS M04 26 Jan 12:36:24 12:44:56 57° 75° (ENE) 12:53:29
ITUPSAT 1 26 Jan 12:37:29 12:38:01 10° 86° (E) 12:38:53 437.325
SO-50 26 Jan 12:39:44 12:44:00 35° 315° (NW) 12:48:22 436.795
PCSat 26 Jan 12:42:34 12:46:23 19° 38° (NE) 12:50:17 145.827
BEESAT 2 26 Jan 12:43:07 12:47:07 42° 241° (WSW) 12:51:00 435.950
AIST 1 26 Jan 12:48:29 12:52:21 32° 286° (WNW) 12:56:12
Oscar 19 26 Jan 12:53:27 12:58:38 77° 74° (ENE) 13:03:52 437.125/150
PHONESAT 2.4 26 Jan 12:57:31 13:01:02 47° 178° (S) 13:04:35 2401.200-2431.200
BEESAT 3 26 Jan 13:01:02 13:04:29 25° 245° (WSW) 13:07:50 437.485
ITAMSAT 1 26 Jan 13:02:54 13:07:33 35° 67° (ENE) 13:12:16 435.822/435.867
ESTCUBE 1 26 Jan 13:17:36 13:20:04 14° 298° (WNW) 13:22:21 437.505/2401.250
TISAT 1 26 Jan 13:22:23 13:26:26 40° 289° (WNW) 13:30:27 437.305
Gurwin Techsat 1B 26 Jan 13:40:33 13:45:40 52° 71° (ENE) 13:50:51 435.225
AO-7 26 Jan 13:42:17 13:48:24 24° 51° (NE) 13:54:46 29.400- 29.500
KKS-1 26 Jan 13:48:13 13:49:19 11° 87° (E) 13:50:41 437.445
SWISSCUBE 26 Jan 13:53:36 13:58:23 68° 102° (ESE) 14:03:10 437.505
VERMONT LUNAR 26 Jan 13:55:55 13:59:10 35° 194° (SSW) 14:02:25 437.305
AIST 2 26 Jan 14:01:09 14:04:05 18° 248° (WSW) 14:06:51 435.215
RS-15 26 Jan 14:02:12 14:13:28 69° 49° (NE) 14:25:16 29.354- 29.394
BEESAT 26 Jan 14:10:04 14:14:52 90° 66° (ENE) 14:19:40 436.000
SPROUT 26 Jan 14:11:19 14:13:46 15° 297° (WNW) 14:16:03 437.525
ITUPSAT 1 26 Jan 14:11:53 14:16:43 89° 282° (WNW) 14:21:31 437.325
CUSAT 1 26 Jan 14:16:16 14:20:35 18° 54° (NE) 14:24:31 437.405
PCSat 26 Jan 14:25:08 14:30:36 89° 250° (WSW) 14:36:03 145.827
HORYU 2 26 Jan 14:33:52 14:38:15 53° 72° (ENE) 14:42:40 437.375
GONETS M04 26 Jan 14:33:53 14:41:25 33° 275° (W) 14:48:43
Oscar 19 26 Jan 14:35:51 14:38:41 14° 273° (W) 14:41:16 437.125/150
PHONESAT 2.4 26 Jan 14:35:59 14:39:20 34° 195° (SSW) 14:42:41 2401.200-2431.200
ITAMSAT 1 26 Jan 14:42:31 14:47:06 31° 265° (W) 14:51:40 435.822/435.867
M-CUBED/EXP-1 PRIME 26 Jan 15:04:38 15:06:30 15° 98° (E) 15:08:30 437.505
DANDE 26 Jan 15:12:14 15:19:05 40° 67° (ENE) 15:24:27 436.750
Gurwin Techsat 1B 26 Jan 15:21:55 15:26:01 22° 269° (W) 15:30:00 435.225
KKS-1 26 Jan 15:22:06 15:26:38 77° 285° (WNW) 15:31:06 437.445
STARS 26 Jan 15:22:49 15:27:18 73° 103° (ESE) 15:31:44 437.465
AO-7 26 Jan 15:31:53 15:40:17 90° 52° (NE) 15:48:44 29.400- 29.500
SWISSCUBE 26 Jan 15:32:52 15:35:47 16° 298° (WNW) 15:38:33 437.505
VERMONT LUNAR 26 Jan 15:35:01 15:36:45 13° 209° (SSW) 15:38:24 437.305
AUBIESAT-1 26 Jan 15:39:33 15:42:36 35° 103° (ESE) 15:45:44 437.475
JAS-2 26 Jan 15:46:28 15:51:46 47° 71° (ENE) 15:56:47 435.910
BEESAT 26 Jan 15:50:07 15:52:06 12° 301° (WNW) 15:53:51 436.000
ITUPSAT 1 26 Jan 15:52:04 15:53:59 12° 301° (WNW) 15:55:40 437.325
CUSAT 1 26 Jan 15:58:07 16:05:03 83° 260° (W) 16:10:09 437.405
PCSat 26 Jan 16:10:51 16:13:20 13° 256° (WSW) 16:15:31 145.827
HORYU 2 26 Jan 16:12:24 16:15:18 16° 270° (W) 16:18:03 437.375
RS-15 26 Jan 16:15:10 16:25:25 39° 251° (WSW) 16:35:48 29.354- 29.394
PHONESAT 2.4 26 Jan 16:15:41 16:17:20 12° 210° (SSW) 16:18:54 2401.200-2431.200
Cubesat XI-IV 26 Jan 16:22:58 16:26:17 18° 60° (ENE) 16:29:47 437.490
O/OREOS (USA 219) 26 Jan 16:31:00 16:34:52 30° 105° (ESE) 16:38:51 437.305
M-CUBED/EXP-1 PRIME 26 Jan 16:38:42 16:41:42 31° 294° (WNW) 16:44:42 437.505
MOZHAYETS 4 26 Jan 16:39:07 16:43:06 30° 95° (E) 16:47:08
CUTE-I 26 Jan 16:42:49 16:47:01 25° 64° (ENE) 16:51:21 437.470
DANDE 26 Jan 16:56:01 17:02:29 36° 273° (W) 17:07:29 436.750
STARS 26 Jan 17:01:02 17:03:16 13° 299° (WNW) 17:05:19 437.465
AUBIESAT-1 26 Jan 17:15:28 17:17:22 14° 299° (WNW) 17:19:11 437.475
AO-7 26 Jan 17:28:23 17:34:19 20° 272° (W) 17:39:52 29.400- 29.500
JAS-2 26 Jan 17:32:48 17:37:13 23° 267° (W) 17:41:17 435.910
CUSAT 1 26 Jan 17:44:07 17:46:32 12° 285° (WNW) 17:48:25 437.405
SO-50 26 Jan 17:49:51 17:51:56 13° 27° (NNE) 17:54:09 436.795
Cubesat XI-IV 26 Jan 18:00:33 18:05:51 73° 257° (WSW) 18:11:14 437.490
PRISM 26 Jan 18:05:20 18:08:40 24° 94° (E) 18:12:04 437.425
O/OREOS (USA 219) 26 Jan 18:10:18 18:14:17 30° 303° (WNW) 18:18:16 437.305
MOZHAYETS 4 26 Jan 18:16:21 18:20:21 29° 292° (WNW) 18:24:15
CUTE-I 26 Jan 18:21:43 18:26:51 48° 261° (W) 18:32:01 437.470
CUBESAT XI-V 26 Jan 18:22:57 18:26:59 28° 94° (E) 18:31:04 437.345
HO-68 26 Jan 18:45:37 18:50:58 24° 57° (ENE) 18:56:31 435.675
STRAND 1 26 Jan 18:55:12 19:00:03 41° 98° (E) 19:04:56 437.568
SEEDS 26 Jan 19:18:09 19:20:30 15° 64° (ENE) 19:23:01 437.485
SO-50 26 Jan 19:28:55 19:33:42 49° 49° (NE) 19:38:31 436.795
YUBILEINY 26 Jan 19:37:14 19:45:22 48° 89° (E) 19:53:38 435.215
PRISM 26 Jan 19:40:34 19:44:15 31° 291° (WNW) 19:47:54 437.425
COMPASS 1 26 Jan 19:47:44 19:51:09 25° 68° (ENE) 19:54:38 437.405
BRITE-PL 26 Jan 19:50:53 19:55:43 54° 72° (ENE) 20:01:00 437.365/2234.400
CANX-2 26 Jan 19:52:35 19:56:38 41° 72° (ENE) 20:00:42 2200.000
CUBESAT XI-V 26 Jan 20:00:17 20:04:28 32° 291° (WNW) 20:08:36 437.345
GOMX 1 26 Jan 20:01:10 20:05:59 49° 71° (ENE) 20:11:09 467.674
Oscar 11 26 Jan 20:09:22 20:12:28 20° 66° (ENE) 20:15:40 145.826/435.025
AAUSAT CUBESAT 2 26 Jan 20:15:39 20:19:37 42° 72° (ENE) 20:23:37 437.432
CUTE 1.7 + AOD 2 26 Jan 20:16:55 20:21:12 70° 75° (ENE) 20:25:29 437.475
DOVE 4 26 Jan 20:26:53 20:31:49 63° 73° (ENE) 20:37:01 437.250
DELFI C3 26 Jan 20:28:05 20:31:18 23° 68° (ENE) 20:34:35 145.870
HO-68 26 Jan 20:30:55 20:38:05 77° 255° (WSW) 20:45:16 435.675
CUBEBUG 2 26 Jan 20:31:04 20:34:54 26° 67° (ENE) 20:38:52 437.445
STRAND 1 26 Jan 20:34:47 20:39:06 27° 295° (WNW) 20:43:20 437.568
CINEMA 3 26 Jan 20:35:29 20:40:08 45° 71° (ENE) 20:44:58 145.822/145.860
UKube-1 26 Jan 20:42:33 20:46:09 27° 67° (ENE) 20:49:49 .
ZACube-1 26 Jan 20:51:14 20:55:05 28° 68° (ENE) 20:59:04 437.345
SEEDS 26 Jan 20:51:44 20:55:57 57° 260° (W) 21:00:10 437.485
DX 1 26 Jan 20:59:23 21:03:26 40° 70° (ENE) 21:07:34 434.975-435.025
FUNcube-1 26 Jan 21:03:49 21:07:59 36° 70° (ENE) 21:12:14 145.935
SO-50 26 Jan 21:10:01 21:14:03 25° 246° (WSW) 21:17:58 436.795
AISAT 26 Jan 21:11:06 21:14:29 22° 65° (ENE) 21:17:58 437.250
UWE-3 26 Jan 21:16:19 21:20:54 58° 73° (ENE) 21:25:34 435.000/436.395/437.385
HUMSAT D 26 Jan 21:16:41 21:20:21 27° 68° (ENE) 21:24:05 437.325/437.525
50 SAT 26 Jan 21:19:34 21:22:43 22° 67° (ENE) 21:25:57 437.505
COMPASS 1 26 Jan 21:22:58 21:26:47 31° 264° (W) 21:30:34 437.405
CANX-2 26 Jan 21:29:40 21:32:48 19° 269° (W) 21:35:50 2200.000
BRITE-PL 26 Jan 21:31:00 21:34:44 20° 272° (W) 21:38:30 437.365/2234.400
YUBILEINY 26 Jan 21:34:19 21:42:25 40° 291° (WNW) 21:50:27 435.215
VELOX 1 26 Jan 21:40:01 21:44:09 40° 70° (ENE) 21:48:21 145.980
GOMX 1 26 Jan 21:40:31 21:44:28 22° 271° (W) 21:48:30 467.674
Oscar 11 26 Jan 21:44:14 21:48:24 43° 262° (W) 21:52:34 145.826/435.025
AAUSAT CUBESAT 2 26 Jan 21:52:32 21:55:32 18° 269° (W) 21:58:24 437.432
CUTE 1.7 + AOD 2 26 Jan 21:56:11 21:57:42 11° 273° (W) 21:58:59 437.475
CUBEBUG 1 26 Jan 21:57:39 22:01:13 26° 67° (ENE) 22:04:52 437.445
DELFI C3 26 Jan 22:02:46 22:06:26 31° 264° (W) 22:10:06 145.870
UNISAT 6 26 Jan 22:06:29 22:09:30 18° 90° (E) 22:12:37 437.425
ISS 26 Jan 22:06:32 22:07:38 11° 132° (SE) 22:08:50 145.825
DOVE 4 26 Jan 22:06:46 22:10:09 17° 273° (W) 22:13:25 437.250
CUBEBUG 2 26 Jan 22:07:01 22:11:27 39° 264° (W) 22:15:56 437.445
QB50P2 26 Jan 22:12:34 22:14:12 12° 88° (E) 22:16:04 145.880/145.840
CINEMA 3 26 Jan 22:13:41 22:17:37 23° 269° (W) 22:21:30 145.822/145.860
UKube-1 26 Jan 22:18:24 22:22:16 30° 264° (W) 22:26:06 .
QB50P1 26 Jan 22:22:11 22:24:42 15° 90° (E) 22:27:22 145.935-145.965
HO-68 26 Jan 22:23:39 22:27:10 13° 276° (W) 22:30:12 435.675
ZACube-1 26 Jan 22:27:14 22:31:24 33° 265° (W) 22:35:34 437.345
POLYITAN 1 26 Jan 22:34:28 22:37:45 21° 92° (E) 22:41:06 437.675
DX 1 26 Jan 22:36:39 22:39:55 20° 268° (W) 22:43:05 434.975-435.025
ESTCUBE 1 26 Jan 22:40:15 22:44:44 76° 75° (ENE) 22:49:14 437.505/2401.250
FUNcube-1 26 Jan 22:40:38 22:44:27 25° 267° (W) 22:48:14 145.935
ANTELSAT 26 Jan 22:41:23 22:45:39 41° 97° (E) 22:49:49 437.575/2403.000
TISAT 1 26 Jan 22:41:44 22:44:40 19° 65° (ENE) 22:47:44 437.305
AISAT 26 Jan 22:46:43 22:50:54 40° 262° (W) 22:55:08 437.250
BUGSAT 1 26 Jan 22:48:00 22:51:21 22° 93° (E) 22:54:47 437.445
TIGRISAT 26 Jan 22:50:45 22:55:09 50° 99° (E) 22:59:25 435.000
HUMSAT D 26 Jan 22:52:14 22:56:05 30° 265° (W) 22:59:55 437.325/437.525
AIST 1 26 Jan 22:53:30 22:57:50 68° 80° (E) 23:02:11
50 SAT 26 Jan 22:53:51 22:57:40 35° 263° (W) 23:01:29 437.505
UWE-3 26 Jan 22:54:53 22:57:54 16° 272° (W) 23:00:43 435.000/436.395/437.385
POPSAT HIP 1 26 Jan 22:55:34 22:59:31 34° 96° (E) 23:03:28 437.405
DUCHIFAT 1 26 Jan 22:59:50 23:03:52 38° 97° (E) 23:07:53 145.980
VELOX 1 26 Jan 23:17:34 23:20:57 21° 268° (W) 23:24:15 145.980
SWISSCUBE 26 Jan 23:27:30 23:29:14 12° 59° (ENE) 23:31:12 437.505
SPROUT 26 Jan 23:29:22 23:33:36 58° 73° (ENE) 23:37:52 437.525
NANOSAT C BR1 26 Jan 23:33:35 23:37:56 89° 91° (E) 23:42:14 145.865
CUBEBUG 1 26 Jan 23:33:36 23:37:31 32° 264° (W) 23:41:25 437.445
ISS 26 Jan 23:40:24 23:43:42 83° 148° (SSE) 23:47:01 145.825
UNISAT 6 26 Jan 23:42:19 23:46:39 46° 289° (WNW) 23:50:50 437.425
BEESAT 26 Jan 23:42:44 23:45:28 16° 62° (ENE) 23:48:22 436.000
ITUPSAT 1 26 Jan 23:44:47 23:47:36 16° 62° (ENE) 23:50:34 437.325
QB50P2 26 Jan 23:46:22 23:50:40 65° 286° (WNW) 23:54:56 145.880/145.840
GONETS M04 26 Jan 23:50:06 23:52:11 11° 73° (ENE) 23:54:59
QB50P1 26 Jan 23:56:46 00:00:59 51° 288° (WNW) 00:05:08 145.935-145.965
POLYITAN 1 27 Jan 00:09:50 00:13:52 37° 290° (WNW) 00:17:49 437.675
TISAT 1 27 Jan 00:16:11 00:20:14 43° 262° (W) 00:24:20 437.305
ANTELSAT 27 Jan 00:18:46 00:22:13 21° 295° (WNW) 00:25:31 437.575/2403.000
ESTCUBE 1 27 Jan 00:20:51 00:22:16 11° 273° (W) 00:23:26 437.505/2401.250
BUGSAT 1 27 Jan 00:23:03 00:26:57 35° 290° (WNW) 00:30:50 437.445
TIGRISAT 27 Jan 00:28:27 00:31:33 18° 296° (WNW) 00:34:29 435.000
POPSAT HIP 1 27 Jan 00:31:47 00:35:17 24° 293° (WNW) 00:38:40 437.405
AIST 1 27 Jan 00:33:37 00:35:00 11° 276° (W) 00:36:08
DUCHIFAT 1 27 Jan 00:36:11 00:39:32 22° 294° (WNW) 00:42:46 145.980
KKS-1 27 Jan 00:47:49 00:49:59 14° 62° (ENE) 00:52:21 437.445
O/OREOS (USA 219) 27 Jan 01:01:39 01:03:02 11° 45° (NE) 01:04:36 437.305
SWISSCUBE 27 Jan 01:01:43 01:06:29 90° 260° (W) 01:11:16 437.505
Oscar 19 27 Jan 01:04:14 01:08:19 24° 92° (E) 01:12:29 437.125/150
SPROUT 27 Jan 01:07:49 01:10:09 14° 272° (W) 01:12:18 437.525
NANOSAT C BR1 27 Jan 01:12:22 01:13:12 10° 300° (WNW) 01:13:49 145.865
ITAMSAT 1 27 Jan 01:17:02 01:17:45 10° 85° (E) 01:18:51 435.822/435.867
ISS 27 Jan 01:17:38 01:20:31 27° 346° (NNW) 01:23:24 145.825
BEESAT 27 Jan 01:18:07 01:22:51 68° 258° (WSW) 01:27:37 436.000
ITUPSAT 1 27 Jan 01:20:19 01:25:02 66° 258° (WSW) 01:29:48 437.325
GONETS M04 27 Jan 01:38:51 01:47:25 63° 93° (E) 01:56:01
M-CUBED/EXP-1 PRIME 27 Jan 01:54:24 01:58:03 33° 66° (ENE) 02:01:30 437.505
Gurwin Techsat 1B 27 Jan 01:56:11 01:59:43 18° 89° (E) 02:03:26 435.225
STARS 27 Jan 02:21:12 02:25:38 77° 75° (ENE) 02:30:07 437.465
KKS-1 27 Jan 02:21:40 02:26:08 71° 258° (WSW) 02:30:39 437.445
AUBIESAT-1 27 Jan 02:29:23 02:33:28 75° 70° (ENE) 02:37:13 437.475
O/OREOS (USA 219) 27 Jan 02:38:45 02:43:22 77° 64° (ENE) 02:47:58 437.305
BEESAT 2 27 Jan 02:39:40 02:43:01 25° 115° (ESE) 02:46:29 435.950
Oscar 19 27 Jan 02:43:00 02:47:56 45° 290° (WNW) 02:52:47 437.125/150
ITAMSAT 1 27 Jan 02:52:56 02:58:12 83° 104° (ESE) 03:03:27 435.822/435.867
ISS 27 Jan 02:55:02 02:57:44 22° 6° (N) 03:00:27 145.825
BEESAT 3 27 Jan 02:55:54 02:59:45 41° 118° (ESE) 03:03:41 437.485
CUSAT 1 27 Jan 03:24:39 03:30:39 24° 83° (E) 03:37:09 437.405
M-CUBED/EXP-1 PRIME 27 Jan 03:29:55 03:33:07 21° 260° (W) 03:36:04 437.505
AO-7 27 Jan 03:32:38 03:39:21 27° 92° (E) 03:46:16 29.400- 29.500
Gurwin Techsat 1B 27 Jan 03:34:57 03:40:13 61° 288° (WNW) 03:45:26 435.225
GONETS M04 27 Jan 03:37:17 03:44:57 31° 295° (WNW) 03:52:25
MOZHAYETS 4 27 Jan 03:42:36 03:46:43 34° 69° (ENE) 03:50:53
AIST 2 27 Jan 03:59:15 04:03:29 70° 121° (ESE) 04:07:47 435.215
HORYU 2 27 Jan 04:00:20 04:04:49 89° 103° (ESE) 04:09:16 437.375
STARS 27 Jan 04:01:27 04:02:47 11° 273° (W) 04:03:50 437.465
BEESAT 2 27 Jan 04:17:15 04:21:07 37° 312° (NW) 04:25:02 435.950
O/OREOS (USA 219) 27 Jan 04:20:32 04:22:13 12° 261° (W) 04:23:39 437.305
DANDE 27 Jan 04:22:48 04:30:28 50° 91° (E) 04:38:47 436.750
RS-15 27 Jan 04:29:16 04:38:24 34° 107° (ESE) 04:47:51 29.354- 29.394
ISS 27 Jan 04:31:30 04:34:45 53° 26° (NNE) 04:38:01 145.825
ITAMSAT 1 27 Jan 04:34:06 04:37:06 15° 301° (WNW) 04:39:53 435.822/435.867
BEESAT 3 27 Jan 04:34:35 04:38:03 25° 317° (NW) 04:41:31 437.485
JAS-2 27 Jan 04:37:14 04:42:22 37° 97° (E) 04:48:04 435.910
STRAND 1 27 Jan 04:38:35 04:39:12 10° 56° (NE) 04:40:05 437.568
PRISM 27 Jan 04:57:45 05:00:56 23° 67° (ENE) 05:04:13 437.425
CUSAT 1 27 Jan 05:04:46 05:12:55 83° 281° (W) 05:21:27 437.405
PCSat 27 Jan 05:08:03 05:13:24 63° 117° (ESE) 05:18:47 145.827
MOZHAYETS 4 27 Jan 05:20:09 05:24:02 26° 267° (W) 05:27:51
AO-7 27 Jan 05:24:36 05:32:55 70° 292° (WNW) 05:41:08 29.400- 29.500
CUBESAT XI-V 27 Jan 05:28:01 05:32:05 33° 69° (ENE) 05:36:14 437.345
AIST 2 27 Jan 05:39:31 05:42:35 18° 322° (NW) 05:45:36 435.215
HORYU 2 27 Jan 05:39:32 05:40:52 11° 300° (WNW) 05:42:00 437.375
YUBILEINY 27 Jan 05:45:29 05:52:25 26° 62° (ENE) 05:59:37 435.215
DANDE 27 Jan 06:06:22 06:14:09 44° 292° (WNW) 06:22:18 436.750
ISS 27 Jan 06:08:23 06:11:06 23° 223° (SW) 06:13:47 145.825
STRAND 1 27 Jan 06:12:31 06:17:34 70° 74° (ENE) 06:22:41 437.568
Cubesat XI-IV 27 Jan 06:16:27 06:21:30 40° 97° (E) 06:26:34 437.490
JAS-2 27 Jan 06:22:33 06:27:30 34° 292° (WNW) 06:32:51 435.910
PRISM 27 Jan 06:32:36 06:36:20 33° 263° (W) 06:40:04 437.425
CUTE-I 27 Jan 06:37:01 06:42:21 60° 101° (E) 06:47:40 437.470
RS-15 27 Jan 06:39:04 06:49:59 72° 309° (NW) 07:01:05 29.354- 29.394
CUSAT 1 27 Jan 06:51:03 06:57:21 22° 302° (WNW) 07:03:21 437.405
PCSat 27 Jan 06:52:51 06:57:18 25° 317° (NW) 07:01:42 145.827
CUBESAT XI-V 27 Jan 07:05:39 07:09:35 27° 266° (W) 07:13:30 437.345
AO-7 27 Jan 07:19:01 07:24:25 19° 313° (NW) 07:29:30 29.400- 29.500
